Wind_Speed
5 5 5 5 6 6 6 6 7 7 8 7 8 8 8 8 8 8 8 8 8 8 8 8 9 12 11 11 11 11 11 10 9 9 9 8 8 7 6 5 6 5 5
6 5 5 5 5 6 7 7 8 8 8 8 8 9 9 9 9 8 8 8 9 8 8 9 10 11 11 11 10 10 11 10 8 9 9 8 7 7 6 5 5 5 5
6 5 5 5 6 7 8 8 8 9 8 8 9 9 9 9 9 8 8 9 9 8 8 9 9 10 10 10 10 10 10 9 8 8 8 8 7 6 6 5 5 5 5
7 6 5 6 6 7 8 8 8 8 8 8 9 9 9 9 9 9 9 10 9 9 9 10 10 10 10 9 9 9 9 9 8 8 8 7 6 6 6 5 6 6 5
8 7 7 6 7 7 8 8 8 8 8 8 9 9 9 9 9 9 9 10 10 10 10 10 10 10 9 9 8 8 8 9 8 8 7 7 6 5 5 5 5 6 5
9 7 6 6 6 7 8 9 9 9 8 8 9 9 9 10 10 10 10 9 10 10 10 10 10 10 9 8 8 8 8 8 8 7 7 7 6 5 5 5 5 5 5
8 7 7 6 7 7 9 9 9 9 9 8 10 10 10 10 10 10 10 9 9 10 10 10 10 10 9 8 8 7 7 7 7 7 7 7 6 6 6 5 5 5 5
9 8 8 8 8 8 8 9 10 9 9 9 10 11 10 9 10 9 9 9 9 9 9 10 9 9 8 8 7 7 6 6 7 6 6 7 7 7 6 5 5 5 5
9 10 10 9 9 9 9 10 10 10 9 9 10 10 11 10 10 9 9 8 8 8 9 8 9 8 7 7 6 6 6 6 7 5 6 6 6 7 6 6 5 5 5
10 10 10 10 10 10 10 10 9 9 9 9 8 10 11 10 9 9 9 8 8 8 8 7 8 9 8 7 6 6 5 5 6 5 6 6 6 6 6 6 6 6 5
10 10 10 10 11 11 11 10 10 10 10 9 9 9 10 10 9 8 8 8 8 8 7 8 8 8 7 6 6 6 5 5 6 6 6 6 6 6 6 6 7 6 6
11 10 10 10 11 11 11 10 10 10 10 10 10 9 9 9 9 9 8 8 8 7 7 8 8 7 6 5 5 5 5 6 6 6 7 6 7 7 6 7 7 7 6
12 11 11 11 11 11 11 10 10 9 10 10 10 10 9 9 9 8 7 7 6 7 7 7 6 6 6 6 5 4 6 6 6 6 6 6 7 7 7 6 6 7 7
12 11 11 10 9 10 10 9 9 9 9 10 10 10 9 8 8 7 6 6 5 6 6 6 5 5 5 4 4 4 4 4 4 5 5 6 6 6 6 6 6 7 8
11 11 10 9 9 9 9 8 9 9 9 9 9 8 9 8 7 6 5 5 5 6 6 5 5 5 4 3 3 4 4 4 4 4 4 5 7 7 7 7 7 8 8
11 11 10 10 9 9 8 8 8 8 8 8 8 8 7 7 5 5 5 5 5 5 4 4 4 4 4 3 2 3 3 4 4 4 4 5 7 7 8 8 9 8 9
11 11 10 10 10 9 9 8 8 7 7 7 7 7 7 7 6 5 5 5 4 3 3 3 3 3 3 2 2 3 3 3 4 4 5 5 6 7 8 9 10 9 10
11 11 10 10 9 9 9 8 8 7 6 7 7 7 7 7 6 5 5 3 3 2 2 2 2 1 1 2 2 2 3 3 4 5 5 5 6 6 8 9 10 10 11
10 10 10 10 10 10 10 9 8 7 7 7 6 6 6 6 6 6 5 3 2 1 1 1 2 2 3 3 3 3 3 3 4 5 5 6 7 7 8 9 10 10 10
10 10 10 10 10 10 9 9 8 8 8 8 7 6 6 6 5 6 5 4 3 2 1 0 1 2 3 2 2 2 3 4 4 5 6 7 8 8 8 9 10 11 12
9 9 9 10 10 10 10 9 8 8 7 7 7 6 5 5 5 6 5 4 3 1 0 1 2 2 2 2 2 3 4 4 5 6 6 7 7 8 9 9 11 11 12
8 8 8 8 9 9 9 9 8 7 7 6 6 6 6 5 4 4 4 3 2 1 1 1 2 2 2 2 2 3 4 4 5 6 7 6 7 8 9 9 11 12 13
8 7 7 7 8 8 8 8 8 7 6 6 5 5 5 5 5 5 4 3 3 2 2 2 3 3 3 3 4 4 5 6 6 7 7 7 7 8 9 10 11 12 12
7 7 7 7 7 8 7 7 7 7 6 6 5 5 5 5 4 4 4 4 4 3 3 3 4 4 4 4 4 5 6 7 7 8 8 8 9 10 11 12 12 12 13
6 6 6 6 6 7 6 6 6 6 6 5 5 5 5 4 4 4 4 4 4 4 4 4 4 5 6 6 6 6 7 7 8 9 9 10 10 11 12 13 13 14 14
5 5 6 6 5 6 6 5 5 5 4 4 4 4 4 4 4 4 4 4 4 5 5 6 6 7 7 7 7 7 8 9 10 10 11 12 12 13 13 14 14 13 14
Wind_Direction
90 100 101 106 123 133 138 140 139 139 137 133 129 133 136 134 135 135 135 139 139 138 135 132 138 147 147 148 154 165 167 168 169 174 177 173 171 170 171 170 173 176 177
87 89 93 110 124 131 131 132 132 135 134 128 127 131 135 137 137 137 138 135 134 135 135 132 137 143 147 147 150 160 168 170 169 172 175 175 177 176 178 176 174 174 174
74 81 100 116 125 129 127 128 129 135 134 128 128 131 134 138 140 141 143 138 137 137 137 137 141 144 145 147 150 157 164 166 167 171 172 173 177 180 185 179 177 176 179
74 80 101 114 115 121 124 123 126 132 135 132 134 136 135 138 142 146 146 142 140 139 138 141 141 139 139 146 151 158 162 165 167 171 175 180 183 187 186 182 184 183 185
83 86 97 105 109 114 118 121 123 128 133 135 137 136 137 142 143 145 147 146 142 141 142 142 143 143 143 146 150 157 163 168 170 175 181 185 189 189 189 189 190 188 189
86 88 91 96 110 116 119 120 120 125 129 134 133 136 139 143 144 144 147 148 146 147 146 146 148 146 148 151 156 160 163 169 175 185 185 189 190 191 190 192 195 195 195
79 80 90 96 103 109 115 118 122 124 128 130 128 134 137 144 146 145 145 148 150 155 154 151 155 151 151 154 162 165 166 175 186 189 187 190 194 194 191 191 193 199 203
80 85 89 96 96 103 107 115 120 126 129 125 123 128 131 136 140 144 146 149 151 155 155 153 157 155 155 159 164 168 175 187 187 189 188 188 194 198 199 198 200 204 205
81 86 86 91 92 98 104 110 118 120 121 126 127 128 130 134 138 142 143 144 141 145 150 151 157 161 159 163 164 168 174 188 191 193 194 194 197 201 204 201 202 206 206
79 85 83 84 89 93 96 102 105 110 114 118 127 129 130 134 135 139 140 139 141 147 151 154 157 158 162 167 172 181 186 195 195 200 205 202 196 197 201 199 206 213 212
76 83 85 86 87 93 97 100 102 104 108 109 118 123 128 132 135 136 138 135 138 144 148 154 157 158 160 164 172 183 197 205 202 205 215 208 201 202 209 209 214 218 213
72 77 82 86 88 87 93 97 100 102 102 107 110 114 123 128 131 133 135 136 141 146 152 157 160 162 161 164 174 188 204 203 206 205 214 211 209 208 214 216 220 220 218
71 75 80 85 90 90 92 96 98 100 102 105 107 112 116 123 127 128 134 142 148 154 160 166 165 165 169 170 177 195 204 205 204 207 210 209 213 219 222 222 221 222 222
74 76 81 81 85 91 92 94 96 97 101 107 111 114 117 122 124 125 129 144 157 161 161 160 161 169 169 174 179 186 192 202 201 206 207 214 218 224 226 230 228 227 227
75 78 79 78 79 84 87 94 95 98 104 109 113 115 120 121 121 121 128 142 156 162 172 176 168 174 179 171 171 171 178 201 206 220 220 220 224 229 230 231 231 231 232
72 76 75 73 76 79 81 89 95 98 104 106 110 114 117 121 124 130 140 142 151 163 178 189 187 185 191 189 171 181 206 221 235 239 231 230 231 235 239 241 244 241 236
70 71 72 72 72 76 79 86 87 87 92 102 105 108 116 123 122 134 136 139 147 160 175 184 207 226 218 219 217 213 230 250 260 247 245 247 243 246 249 251 252 254 251
69 69 69 71 71 73 76 81 84 85 89 97 100 104 106 109 110 121 131 138 147 163 180 194 216 238 247 242 230 230 250 273 277 263 262 259 254 255 257 258 257 259 257
65 67 68 68 70 73 75 77 80 81 78 84 92 98 101 103 106 101 106 117 132 147 176 223 265 270 268 262 250 260 281 294 286 284 279 267 262 264 265 261 259 260 260
63 65 66 65 66 70 72 74 76 76 73 72 80 88 90 91 91 87 84 83 84 74 86 335 307 293 272 271 278 276 296 308 305 299 286 276 271 273 271 265 263 267 269
59 62 64 66 65 66 69 72 74 74 71 70 70 73 81 84 85 79 74 71 62 45 80 348 349 324 314 302 305 311 312 309 305 300 293 286 281 280 279 274 273 273 272
58 58 58 62 64 66 66 68 71 71 71 68 66 65 68 73 79 72 55 43 18 347 337 326 330 323 331 334 326 315 314 311 304 306 303 293 288 283 277 275 272 271 269
55 57 60 61 62 62 63 64 62 64 68 67 66 69 66 63 61 54 46 42 40 29 17 11 8 350 347 344 329 319 315 311 312 311 305 299 292 288 288 283 277 271 273
51 55 57 60 58 57 57 58 58 62 68 69 67 69 64 57 52 45 40 38 34 31 21 10 358 346 337 340 333 325 320 312 307 306 306 304 300 297 295 283 277 273 274
41 45 51 54 53 54 54 54 56 58 62 62 61 58 52 44 40 39 41 37 23 13 5 351 345 348 344 337 328 323 316 309 306 305 304 302 301 301 298 293 286 282 280
30 38 44 42 45 48 46 45 49 50 52 51 45 38 32 23 15 13 16 12 2 357 349 343 337 333 334 332 327 322 316 311 305 302 303 302 301 304 303 299 293 291 287
Height
5864 5863 5863 5863 5862 5863 5863 5863 5864 5865 5865 5865 5866 5867 5867 5868 5869 5869 5870 5870 5871 5871 5871 5870 5868 5871 5874 5876 5878 5879 5881 5883 5884 5885 5886 5887 5888 5889 5890 5891 5891 5892 5892
5865 5864 5863 5863 5863 5863 5863 5864 5864 5865 5866 5866 5866 5867 5868 5868 5869 5870 5871 5871 5872 5872 5872 5872 5872 5874 5875 5877 5879 5881 5882 5883 5885 5886 5887 5888 5889 5890 5891 5891 5892 5892 5893
5865 5864 5864 5864 5864 5864 5864 5864 5865 5866 5866 5867 5867 5868 5868 5869 5870 5870 5871 5872 5873 5873 5874 5874 5875 5876 5877 5879 5880 5882 5883 5884 5885 5886 5887 5888 5889 5890 5891 5891 5892 5892 5893
5866 5865 5865 5865 5865 5865 5865 5865 5866 5866 5867 5867 5868 5868 5869 5870 5870 5871 5872 5873 5874 5875 5875 5876 5877 5878 5879 5880 5882 5883 5884 5885 5886 5887 5888 5888 5889 5890 5891 5892 5892 5893 5893
5867 5866 5866 5866 5866 5865 5866 5866 5867 5867 5867 5868 5868 5869 5870 5870 5871 5872 5873 5874 5875 5876 5876 5877 5878 5879 5880 5881 5882 5883 5884 5885 5886 5887 5888 5889 5890 5891 5891 5892 5892 5893 5893
5868 5868 5867 5867 5867 5866 5866 5867 5867 5868 5868 5868 5869 5869 5870 5871 5872 5873 5873 5874 5875 5876 5877 5878 5879 5880 5881 5883 5883 5884 5885 5886 5887 5887 5888 5889 5890 5891 5891 5892 5892 5893 5893
5870 5869 5868 5868 5868 5867 5867 5867 5868 5868 5869 5869 5869 5870 5870 5871 5873 5873 5874 5875 5876 5877 5878 5878 5880 5881 5882 5883 5884 5885 5886 5886 5887 5887 5888 5889 5890 5891 5891 5892 5892 5893 5893
5871 5870 5870 5869 5869 5869 5869 5868 5869 5869 5869 5870 5870 5871 5871 5872 5873 5874 5875 5876 5877 5877 5878 5879 5881 5882 5883 5884 5884 5885 5886 5887 5887 5887 5888 5889 5890 5890 5891 5891 5892 5892 5893
5873 5872 5871 5871 5870 5870 5870 5870 5870 5870 5870 5871 5871 5871 5872 5872 5873 5875 5876 5876 5877 5878 5879 5880 5881 5882 5883 5884 5885 5885 5886 5887 5887 5887 5888 5889 5890 5890 5891 5891 5891 5892 5892
5875 5874 5873 5872 5872 5872 5871 5871 5871 5871 5872 5872 5872 5872 5872 5873 5874 5875 5876 5877 5877 5878 5879 5880 5881 5882 5883 5884 5885 5886 5886 5886 5887 5887 5888 5889 5889 5890 5890 5890 5891 5891 5892
5877 5876 5876 5875 5874 5874 5874 5873 5873 5873 5873 5873 5873 5872 5873 5874 5875 5876 5877 5877 5878 5879 5880 5881 5882 5883 5883 5884 5885 5885 5886 5886 5886 5887 5887 5888 5889 5889 5889 5890 5890 5891 5891
5879 5878 5878 5877 5876 5876 5875 5875 5875 5875 5874 5874 5874 5873 5873 5874 5876 5877 5877 5878 5879 5880 5881 5881 5882 5883 5884 5884 5885 5885 5886 5886 5886 5886 5887 5888 5888 5888 5889 5889 5889 5890 5890
5882 5881 5880 5879 5879 5878 5878 5877 5877 5876 5876 5875 5875 5874 5875 5875 5877 5878 5878 5879 5880 5881 5881 5882 5882 5883 5884 5884 5885 5885 5885 5886 5886 5886 5887 5887 5888 5888 5888 5888 5889 5889 5889
5884 5883 5883 5882 5881 5880 5880 5879 5879 5878 5878 5877 5877 5877 5877 5877 5878 5879 5880 5880 5881 5881 5882 5882 5883 5883 5884 5884 5884 5885 5885 5885 5885 5886 5886 5887 5887 5887 5888 5888 5888 5888 5888
5887 5886 5885 5884 5883 5882 5882 5881 5880 5880 5880 5879 5879 5879 5879 5880 5880 5880 5881 5881 5881 5882 5883 5883 5883 5884 5884 5884 5884 5884 5885 5885 5885 5885 5885 5886 5886 5887 5887 5887 5887 5887 5887
5889 5888 5887 5886 5885 5884 5884 5883 5882 5882 5881 5881 5881 5881 5881 5881 5881 5882 5882 5882 5882 5883 5883 5883 5884 5884 5885 5885 5884 5884 5884 5884 5885 5885 5885 5885 5885 5886 5886 5886 5886 5885 5885
5891 5890 5889 5888 5887 5886 5886 5885 5884 5883 5883 5882 5882 5882 5882 5882 5882 5882 5883 5883 5883 5883 5884 5884 5884 5884 5884 5884 5884 5884 5884 5884 5884 5884 5884 5884 5884 5884 5885 5885 5885 5884 5884
5894 5892 5891 5890 5889 5888 5887 5886 5886 5885 5885 5884 5884 5884 5884 5883 5883 5883 5883 5883 5884 5884 5884 5884 5884 5884 5884 5884 5884 5884 5884 5884 5883 5883 5883 5883 5883 5883 5883 5883 5883 5883 5882
5896 5895 5893 5892 5891 5890 5889 5888 5888 5887 5887 5886 5886 5885 5885 5885 5885 5885 5884 5884 5884 5884 5884 5884 5885 5884 5884 5884 5883 5883 5883 5883 5882 5882 5882 5882 5882 5882 5881 5881 5881 5881 5880
5898 5897 5896 5894 5893 5892 5891 5890 5889 5889 5888 5888 5887 5887 5887 5886 5886 5886 5885 5885 5885 5885 5885 5885 5885 5884 5884 5883 5883 5883 5882 5882 5881 5881 5881 5880 5880 5880 5879 5879 5879 5879 5878
5900 5899 5898 5897 5895 5894 5893 5892 5891 5891 5890 5889 5889 5888 5888 5888 5887 5887 5886 5886 5885 5885 5885 5885 5885 5884 5884 5883 5883 5882 5882 5881 5881 5880 5879 5879 5878 5878 5878 5877 5877 5876 5876
5902 5901 5900 5898 5897 5896 5895 5894 5893 5893 5892 5891 5890 5890 5889 5888 5888 5887 5887 5886 5886 5886 5886 5885 5885 5884 5883 5883 5882 5882 5881 5881 5879 5879 5878 5877 5877 5876 5875 5875 5874 5873 5872
5904 5902 5901 5900 5899 5898 5897 5896 5895 5894 5893 5892 5892 5891 5890 5889 5889 5888 5888 5887 5887 5886 5886 5885 5885 5884 5883 5882 5881 5881 5880 5879 5878 5878 5877 5876 5875 5874 5873 5872 5871 5870 5870
5905 5904 5903 5901 5900 5899 5898 5897 5896 5895 5894 5893 5893 5892 5891 5890 5890 5889 5888 5888 5887 5887 5886 5885 5885 5884 5883 5882 5881 5880 5879 5878 5877 5876 5875 5874 5873 5872 5871 5869 5868 5868 5867
5906 5905 5904 5903 5902 5900 5899 5898 5897 5896 5895 5895 5894 5893 5892 5891 5890 5890 5889 5888 5888 5887 5886 5886 5885 5884 5882 5881 5880 5879 5878 5877 5876 5875 5873 5872 5871 5870 5868 5867 5866 5865 5864
5907 5906 5905 5904 5903 5901 5900 5899 5898 5897 5896 5896 5895 5894 5893 5892 5891 5890 5889 5888 5888 5887 5886 5885 5884 5883 5882 5881 5880 5878 5877 5876 5874 5873 5871 5870 5869 5868 5866 5864 5863 5862 5861